Time,TemperatureF,DewpointF,PressureIn,WindDirection,WindDirectionDegrees,WindSpeedMPH,WindSpeedGustMPH,Humidity,HourlyPrecipIn,Conditions,Clouds,dailyrainin,SoftwareType,DateUTC
2013-04-17 00:00:00,56.3,49.9,29.99,SSW,200,1.0,11.0,79,0.00,,OVC100,0.01,VWS V14.01,2013-04-17 04:00:00,
2013-04-17 00:01:00,56.3,49.9,29.99,South,181,5.0,10.0,79,0.00,,OVC100,0.00,VWS V14.01,2013-04-17 04:01:00,
2013-04-17 00:02:00,56.3,50.2,29.99,SSW,192,4.0,5.0,80,0.00,,OVC050,0.00,VWS V14.01,2013-04-17 04:02:00,
2013-04-17 00:07:00,56.3,50.2,29.99,SSE,164,3.0,6.0,80,0.00,,OVC050,0.00,VWS V14.01,2013-04-17 04:07:00,
2013-04-17 00:12:00,56.3,50.2,29.99,WNW,301,5.0,11.0,80,0.00,,OVC050,0.00,VWS V14.01,2013-04-17 04:12:00,
2013-04-17 00:17:00,56.3,50.2,29.99,South,181,0.0,6.0,80,0.00,,OVC050,0.00,VWS V14.01,2013-04-17 04:17:00,
2013-04-17 00:22:00,56.3,50.2,29.99,SE,136,3.0,7.0,80,0.00,,OVC050,0.00,VWS V14.01,2013-04-17 04:22:00,
2013-04-17 00:27:00,56.3,50.2,29.99,SE,133,5.0,8.0,80,0.00,,OVC050,0.00,VWS V14.01,2013-04-17 04:27:00,
2013-04-17 00:32:00,56.3,50.5,29.99,SSE,155,4.0,6.0,81,0.00,,OVC050,0.00,VWS V14.01,2013-04-17 04:32:00,
2013-04-17 00:38:00,56.3,50.5,29.99,SSE,160,4.0,11.0,81,0.00,,OVC050,0.00,VWS V14.01,2013-04-17 04:38:00,
2013-04-17 00:43:00,56.2,50.5,29.99,SSE,165,8.0,12.0,81,0.00,,OVC050,0.00,VWS V14.01,2013-04-17 04:43:00,
2013-04-17 00:48:00,56.0,50.3,29.99,SSE,154,1.0,9.0,81,0.00,,OVC050,0.00,VWS V14.01,2013-04-17 04:48:00,
2013-04-17 00:53:00,56.0,50.6,29.99,SSE,164,6.0,7.0,82,0.00,,OVC050,0.00,VWS V14.01,2013-04-17 04:53:00,
2013-04-17 00:58:00,55.9,50.5,29.99,SSE,164,2.0,6.0,82,0.00,,OVC050,0.00,VWS V14.01,2013-04-17 04:58:00,
2013-04-17 01:03:00,55.9,50.5,29.99,East,88,6.0,6.0,82,0.00,,-RA,0.00,VWS V14.01,2013-04-17 05:03:00,
2013-04-17 01:08:00,55.9,50.5,29.99,SW,217,0.0,0.0,82,0.00,,-RA,0.00,VWS V14.01,2013-04-17 05:08:00,
2013-04-17 01:13:00,55.7,50.6,29.99,SW,217,0.0,1.0,83,0.00,,-RA,0.00,VWS V14.01,2013-04-17 05:13:00,
2013-04-17 01:18:00,55.7,50.6,30.01,West,280,0.0,4.0,83,0.00,,-RA,0.00,VWS V14.01,2013-04-17 05:18:00,
2013-04-17 01:24:00,55.7,50.6,30.01,SSE,162,0.0,2.0,83,0.00,,-RA,0.00,VWS V14.01,2013-04-17 05:24:00,
2013-04-17 01:29:00,55.6,50.5,30.01,South,186,1.0,3.0,83,0.00,,-RA,0.00,VWS V14.01,2013-04-17 05:29:00,
2013-04-17 01:34:00,55.6,50.5,30.01,SSE,164,1.0,7.0,83,0.00,,-RA,0.00,VWS V14.01,2013-04-17 05:34:00,
2013-04-17 01:39:00,55.6,50.8,30.01,SSE,164,0.0,1.0,84,0.00,,-RA,0.00,VWS V14.01,2013-04-17 05:39:00,
2013-04-17 01:44:00,55.6,50.8,30.01,South,179,1.0,3.0,84,0.00,,-RA,0.00,VWS V14.01,2013-04-17 05:44:00,
2013-04-17 01:49:00,55.4,50.7,30.01,South,179,0.0,0.0,84,0.01,,-RA,0.01,VWS V14.01,2013-04-17 05:49:00,
2013-04-17 01:54:00,55.4,50.7,30.01,NW,319,4.0,6.0,84,0.01,,-RA,0.01,VWS V14.01,2013-04-17 05:54:00,
2013-04-17 01:59:00,55.3,50.9,30.01,SSW,210,2.0,2.0,85,0.01,,-RA,0.01,VWS V14.01,2013-04-17 05:59:00,
2013-04-17 02:05:00,55.1,50.7,30.01,NW,320,0.0,0.0,85,0.01,,OVC031,0.01,VWS V14.01,2013-04-17 06:05:00,
2013-04-17 02:10:00,55.0,50.6,30.01,SSE,155,2.0,5.0,85,0.01,,OVC031,0.01,VWS V14.01,2013-04-17 06:10:00,
2013-04-17 02:15:00,55.0,50.9,30.02,North,352,0.0,1.0,86,0.01,,OVC031,0.01,VWS V14.01,2013-04-17 06:15:00,
2013-04-17 02:20:00,54.8,50.7,30.02,SE,131,2.0,3.0,86,0.01,,OVC031,0.01,VWS V14.01,2013-04-17 06:20:00,
2013-04-17 02:25:00,54.7,50.9,30.02,SE,131,0.0,0.0,87,0.01,,OVC031,0.01,VWS V14.01,2013-04-17 06:25:00,
2013-04-17 02:30:00,54.5,50.7,30.02,SSE,150,1.0,1.0,87,0.01,,OVC031,0.01,VWS V14.01,2013-04-17 06:30:00,
2013-04-17 02:35:00,54.4,50.6,30.02,NNW,339,0.0,0.0,87,0.01,,OVC031,0.01,VWS V14.01,2013-04-17 06:35:00,
2013-04-17 02:41:00,54.1,50.0,30.02,West,280,0.0,3.0,86,0.01,,OVC031,0.01,VWS V14.01,2013-04-17 06:41:00,
2013-04-17 02:46:00,53.6,49.5,30.02,SW,223,0.0,3.0,86,0.01,,OVC031,0.01,VWS V14.01,2013-04-17 06:46:00,
2013-04-17 02:51:00,53.3,48.9,30.02,WSW,257,0.0,5.0,85,0.01,,OVC031,0.01,VWS V14.01,2013-04-17 06:51:00,
2013-04-17 02:56:00,53.1,48.4,30.02,NW,319,2.0,10.0,84,0.00,,OVC031,0.01,VWS V14.01,2013-04-17 06:56:00,
2013-04-17 03:01:00,52.6,47.6,30.02,ENE,61,0.0,1.0,83,0.00,,OVC031,0.01,VWS V14.01,2013-04-17 07:01:00,
2013-04-17 03:06:00,52.5,46.8,30.02,NW,305,0.0,2.0,81,0.00,,OVC090,0.01,VWS V14.01,2013-04-17 07:06:00,
2013-04-17 03:11:00,52.0,46.0,30.02,West,274,0.0,3.0,80,0.00,,OVC090,0.01,VWS V14.01,2013-04-17 07:11:00,
2013-04-17 03:16:00,51.6,44.6,30.03,WNW,288,0.0,4.0,77,0.00,,OVC090,0.01,VWS V14.01,2013-04-17 07:16:00,
2013-04-17 03:21:00,51.6,44.3,30.03,WNW,288,1.0,1.0,76,0.00,,OVC090,0.01,VWS V14.01,2013-04-17 07:21:00,
2013-04-17 03:26:00,51.4,43.4,30.03,West,272,2.0,6.0,74,0.00,,OVC090,0.01,VWS V14.01,2013-04-17 07:26:00,
2013-04-17 03:31:00,51.3,42.2,30.03,West,272,0.0,4.0,71,0.00,,OVC090,0.01,VWS V14.01,2013-04-17 07:31:00,
2013-04-17 03:37:00,51.1,40.9,30.03,WNW,282,2.0,5.0,68,0.00,,OVC090,0.01,VWS V14.01,2013-04-17 07:37:00,
2013-04-17 03:42:00,51.0,40.1,30.03,WNW,291,0.0,0.0,66,0.00,,OVC090,0.01,VWS V14.01,2013-04-17 07:42:00,
2013-04-17 03:47:00,51.0,40.1,30.03,WNW,291,0.0,0.0,66,0.00,,OVC090,0.01,VWS V14.01,2013-04-17 07:47:00,
2013-04-17 03:52:00,51.0,39.3,30.03,WNW,291,2.0,6.0,64,0.00,,OVC090,0.01,VWS V14.01,2013-04-17 07:52:00,
2013-04-17 03:57:00,51.0,39.3,30.03,SSE,162,0.0,3.0,64,0.00,,OVC090,0.01,VWS V14.01,2013-04-17 07:57:00,
2013-04-17 04:02:00,50.8,38.7,30.04,SW,217,0.0,0.0,63,0.00,,OVC050,0.01,VWS V14.01,2013-04-17 08:02:00,
2013-04-17 04:07:00,50.8,38.7,30.04,WSW,250,0.0,3.0,63,0.00,,OVC050,0.01,VWS V14.01,2013-04-17 08:07:00,
2013-04-17 04:12:00,50.8,38.3,30.04,West,260,4.0,4.0,62,0.00,,OVC050,0.01,VWS V14.01,2013-04-17 08:12:00,
2013-04-17 04:18:00,50.8,38.3,30.04,WSW,246,1.0,1.0,62,0.00,,OVC050,0.01,VWS V14.01,2013-04-17 08:18:00,
2013-04-17 04:23:00,50.7,37.8,30.04,NW,319,0.0,2.0,61,0.00,,OVC050,0.01,VWS V14.01,2013-04-17 08:23:00,
2013-04-17 04:28:00,50.7,38.6,30.04,NW,319,0.0,0.0,63,0.00,,OVC050,0.01,VWS V14.01,2013-04-17 08:28:00,
2013-04-17 04:33:00,50.7,38.2,30.03,NW,318,1.0,6.0,62,0.00,,OVC050,0.01,VWS V14.01,2013-04-17 08:33:00,
2013-04-17 04:38:00,50.5,37.6,30.03,NNW,332,0.0,2.0,61,0.00,,OVC050,0.01,VWS V14.01,2013-04-17 08:38:00,
2013-04-17 04:43:00,50.5,38.0,30.03,NNW,328,0.0,2.0,62,0.00,,OVC050,0.01,VWS V14.01,2013-04-17 08:43:00,
2013-04-17 04:48:00,50.5,38.0,30.03,WNW,294,0.0,2.0,62,0.00,,OVC050,0.01,VWS V14.01,2013-04-17 08:48:00,
2013-04-17 04:53:00,50.5,38.0,30.03,WNW,295,0.0,1.0,62,0.00,,OVC050,0.01,VWS V14.01,2013-04-17 08:53:00,
2013-04-17 04:59:00,50.5,38.4,30.03,NW,309,0.0,1.0,63,0.00,,OVC050,0.01,VWS V14.01,2013-04-17 08:59:00,
2013-04-17 05:04:00,50.4,38.7,30.03,NNW,333,0.0,4.0,64,0.00,,OVC085,0.01,VWS V14.01,2013-04-17 09:04:00,
2013-04-17 05:09:00,50.4,38.3,30.03,NW,308,0.0,2.0,63,0.00,,OVC085,0.01,VWS V14.01,2013-04-17 09:09:00,
2013-04-17 05:14:00,50.2,38.5,30.03,WNW,289,0.0,5.0,64,0.00,,OVC085,0.01,VWS V14.01,2013-04-17 09:14:00,
2013-04-17 05:19:00,50.2,38.5,30.04,WNW,289,1.0,1.0,64,0.00,,OVC085,0.01,VWS V14.01,2013-04-17 09:19:00,
2013-04-17 05:24:00,50.2,38.5,30.04,WNW,288,0.0,3.0,64,0.00,,OVC085,0.01,VWS V14.01,2013-04-17 09:24:00,
2013-04-17 05:29:00,50.2,38.5,30.04,WNW,301,0.0,1.0,64,0.00,,OVC085,0.01,VWS V14.01,2013-04-17 09:29:00,
2013-04-17 05:34:00,50.1,39.2,30.04,WNW,301,0.0,0.0,66,0.00,,OVC085,0.01,VWS V14.01,2013-04-17 09:34:00,
2013-04-17 05:39:00,50.1,39.2,30.04,WNW,301,0.0,0.0,66,0.00,,OVC085,0.01,VWS V14.01,2013-04-17 09:39:00,
2013-04-17 05:44:00,49.9,39.0,30.04,WNW,302,0.0,0.0,66,0.00,,OVC085,0.01,VWS V14.01,2013-04-17 09:44:00,
2013-04-17 05:50:00,49.8,38.9,30.04,WNW,302,0.0,1.0,66,0.00,,OVC085,0.01,VWS V14.01,2013-04-17 09:50:00,
2013-04-17 05:55:00,49.8,38.9,30.04,WNW,302,2.0,2.0,66,0.00,,OVC085,0.01,VWS V14.01,2013-04-17 09:55:00,
2013-04-17 06:00:00,49.6,39.1,30.04,North,0,0.0,0.0,67,0.00,,OVC085,0.01,VWS V14.01,2013-04-17 10:00:00,
2013-04-17 06:05:00,49.5,39.0,30.04,North,0,0.0,0.0,67,0.00,,BKN110,0.01,VWS V14.01,2013-04-17 10:05:00,
2013-04-17 06:10:00,49.5,39.0,30.04,North,0,0.0,0.0,67,0.00,,BKN110,0.01,VWS V14.01,2013-04-17 10:10:00,
2013-04-17 06:15:00,49.4,38.9,30.05,North,0,0.0,0.0,67,0.00,,BKN110,0.01,VWS V14.01,2013-04-17 10:15:00,
2013-04-17 06:20:00,49.2,38.7,30.05,North,0,0.0,0.0,67,0.00,,BKN110,0.01,VWS V14.01,2013-04-17 10:20:00,
2013-04-17 06:26:00,49.2,39.1,30.05,North,0,0.0,0.0,68,0.00,,BKN110,0.01,VWS V14.01,2013-04-17 10:26:00,
2013-04-17 06:31:00,48.9,38.8,30.05,North,0,0.0,0.0,68,0.00,,BKN110,0.01,VWS V14.01,2013-04-17 10:31:00,
2013-04-17 06:36:00,48.8,39.1,30.05,WNW,291,0.0,0.0,69,0.00,,BKN110,0.01,VWS V14.01,2013-04-17 10:36:00,
2013-04-17 06:41:00,48.6,39.3,30.05,WNW,298,0.0,0.0,70,0.00,,BKN110,0.01,VWS V14.01,2013-04-17 10:41:00,
2013-04-17 06:46:00,48.5,39.2,30.06,WNW,298,0.0,0.0,70,0.00,,BKN110,0.01,VWS V14.01,2013-04-17 10:46:00,
2013-04-17 06:51:00,48.3,39.3,30.06,WNW,298,0.0,2.0,71,0.00,,BKN110,0.01,VWS V14.01,2013-04-17 10:51:00,
2013-04-17 06:56:00,48.2,39.6,30.06,WNW,298,0.0,0.0,72,0.00,,BKN110,0.01,VWS V14.01,2013-04-17 10:56:00,
2013-04-17 07:01:00,48.2,39.6,30.07,WNW,298,0.0,2.0,72,0.00,,BKN110,0.01,VWS V14.01,2013-04-17 11:01:00,
2013-04-17 07:06:00,48.2,39.6,30.07,WNW,298,0.0,1.0,72,0.00,,BKN100,0.01,VWS V14.01,2013-04-17 11:06:00,
2013-04-17 07:12:00,48.3,39.7,30.07,NNW,332,1.0,7.0,72,0.00,,BKN100,0.01,VWS V14.01,2013-04-17 11:12:00,
2013-04-17 07:17:00,48.5,39.5,30.08,WNW,287,0.0,5.0,71,0.00,,BKN100,0.01,VWS V14.01,2013-04-17 11:17:00,
2013-04-17 07:22:00,48.9,39.6,30.08,West,278,0.0,0.0,70,0.00,,BKN100,0.01,VWS V14.01,2013-04-17 11:22:00,
2013-04-17 07:27:00,49.2,39.8,30.08,West,281,0.0,2.0,70,0.00,,BKN100,0.01,VWS V14.01,2013-04-17 11:27:00,
2013-04-17 07:32:00,49.6,39.9,30.09,NNW,330,1.0,5.0,69,0.00,,BKN100,0.01,VWS V14.01,2013-04-17 11:32:00,
2013-04-17 07:37:00,50.1,40.3,30.09,North,0,0.0,2.0,69,0.00,,BKN100,0.01,VWS V14.01,2013-04-17 11:37:00,
2013-04-17 07:42:00,50.4,39.9,30.09,NW,325,0.0,5.0,67,0.00,,BKN100,0.01,VWS V14.01,2013-04-17 11:42:00,
2013-04-17 07:47:00,50.7,39.8,30.09,WSW,257,1.0,5.0,66,0.00,,BKN100,0.01,VWS V14.01,2013-04-17 11:47:00,
2013-04-17 07:53:00,51.0,39.7,30.09,NNW,343,6.0,11.0,65,0.00,,BKN100,0.01,VWS V14.01,2013-04-17 11:53:00,
2013-04-17 07:58:00,51.3,39.5,30.09,North,357,0.0,6.0,64,0.00,,BKN100,0.01,VWS V14.01,2013-04-17 11:58:00,
2013-04-17 08:03:00,51.6,39.8,30.10,North,10,1.0,5.0,64,0.00,,CLR,0.01,VWS V14.01,2013-04-17 12:03:00,
2013-04-17 08:08:00,51.7,39.1,30.10,NNW,346,0.0,2.0,62,0.00,,CLR,0.01,VWS V14.01,2013-04-17 12:08:00,
2013-04-17 08:13:00,52.0,39.8,30.10,North,359,2.0,6.0,63,0.00,,CLR,0.01,VWS V14.01,2013-04-17 12:13:00,
2013-04-17 08:19:00,52.3,40.1,30.10,NW,312,0.0,3.0,63,0.00,,CLR,0.01,VWS V14.01,2013-04-17 12:19:00,
2013-04-17 08:24:00,52.8,40.2,30.10,NW,320,4.0,6.0,62,0.00,,CLR,0.01,VWS V14.01,2013-04-17 12:24:00,
2013-04-17 08:29:00,53.2,40.1,30.10,NNE,23,14.0,14.0,61,0.00,,CLR,0.01,VWS V14.01,2013-04-17 12:29:00,
2013-04-17 08:34:00,53.5,39.5,30.10,North,3,5.0,6.0,59,0.00,,CLR,0.01,VWS V14.01,2013-04-17 12:34:00,
2013-04-17 08:39:00,53.6,39.2,30.10,NW,320,0.0,3.0,58,0.00,,CLR,0.01,VWS V14.01,2013-04-17 12:39:00,
2013-04-17 08:44:00,53.9,39.5,30.10,ENE,59,2.0,6.0,58,0.00,,CLR,0.01,VWS V14.01,2013-04-17 12:44:00,
2013-04-17 08:50:00,54.1,38.8,30.11,WNW,302,2.0,4.0,56,0.00,,CLR,0.01,VWS V14.01,2013-04-17 12:50:00,
2013-04-17 08:55:00,54.1,38.8,30.11,North,359,0.0,6.0,56,0.00,,CLR,0.01,VWS V14.01,2013-04-17 12:55:00,
2013-04-17 09:00:00,54.1,38.8,30.11,West,278,2.0,6.0,56,0.00,,CLR,0.01,VWS V14.01,2013-04-17 13:00:00,
2013-04-17 09:05:00,54.2,39.3,30.11,WNW,284,8.0,8.0,57,0.00,,CLR,0.01,VWS V14.01,2013-04-17 13:05:00,
2013-04-17 09:10:00,54.4,39.5,30.11,NNE,17,1.0,1.0,57,0.00,,CLR,0.01,VWS V14.01,2013-04-17 13:10:00,
2013-04-17 09:15:00,54.5,38.7,30.10,NNW,342,11.0,11.0,55,0.00,,CLR,0.01,VWS V14.01,2013-04-17 13:15:00,
2013-04-17 09:20:00,54.5,38.2,30.10,West,277,8.0,13.0,54,0.00,,CLR,0.01,VWS V14.01,2013-04-17 13:20:00,
2013-04-17 09:25:00,54.5,38.7,30.10,North,0,1.0,3.0,55,0.00,,CLR,0.01,VWS V14.01,2013-04-17 13:25:00,
2013-04-17 09:30:00,55.0,38.7,30.11,NNW,340,0.0,6.0,54,0.00,,CLR,0.01,VWS V14.01,2013-04-17 13:30:00,
2013-04-17 09:36:00,55.1,38.8,30.11,SSW,205,7.0,7.0,54,0.00,,CLR,0.01,VWS V14.01,2013-04-17 13:36:00,
2013-04-17 09:41:00,55.6,38.8,30.11,NW,306,0.0,6.0,53,0.00,,CLR,0.01,VWS V14.01,2013-04-17 13:41:00,
2013-04-17 09:46:00,55.7,37.9,30.11,ESE,123,0.0,2.0,51,0.00,,CLR,0.01,VWS V14.01,2013-04-17 13:46:00,
2013-04-17 09:51:00,55.7,37.4,30.11,NNW,335,3.0,3.0,50,0.00,,CLR,0.01,VWS V14.01,2013-04-17 13:51:00,
2013-04-17 09:56:00,56.0,37.6,30.11,NNE,23,1.0,11.0,50,0.00,,CLR,0.01,VWS V14.01,2013-04-17 13:56:00,
2013-04-17 10:01:00,56.2,37.3,30.11,North,3,4.0,9.0,49,0.00,,CLR,0.01,VWS V14.01,2013-04-17 14:01:00,
2013-04-17 10:06:00,56.5,38.6,30.11,WNW,294,7.0,7.0,51,0.00,,CLR,0.01,VWS V14.01,2013-04-17 14:06:00,
2013-04-17 10:11:00,56.3,35.2,30.11,North,354,9.0,13.0,45,0.00,,CLR,0.01,VWS V14.01,2013-04-17 14:11:00,
2013-04-17 10:16:00,55.9,36.0,30.12,North,0,1.0,11.0,47,0.00,,CLR,0.01,VWS V14.01,2013-04-17 14:16:00,
2013-04-17 10:21:00,56.0,36.6,30.12,NW,318,1.0,8.0,48,0.00,,CLR,0.01,VWS V14.01,2013-04-17 14:21:00,
2013-04-17 10:26:00,56.6,38.7,30.12,North,356,4.0,5.0,51,0.00,,CLR,0.01,VWS V14.01,2013-04-17 14:26:00,
2013-04-17 10:31:00,57.0,38.0,30.12,West,280,4.0,6.0,49,0.00,,CLR,0.01,VWS V14.01,2013-04-17 14:31:00,
2013-04-17 10:36:00,57.2,36.6,30.12,NW,323,2.0,8.0,46,0.00,,CLR,0.01,VWS V14.01,2013-04-17 14:36:00,
2013-04-17 10:42:00,57.3,37.3,30.12,WNW,296,0.0,3.0,47,0.00,,CLR,0.01,VWS V14.01,2013-04-17 14:42:00,
2013-04-17 10:47:00,57.8,37.7,30.12,WNW,291,3.0,5.0,47,0.00,,CLR,0.01,VWS V14.01,2013-04-17 14:47:00,
2013-04-17 10:52:00,58.4,38.3,30.12,North,4,0.0,7.0,47,0.00,,CLR,0.01,VWS V14.01,2013-04-17 14:52:00,
2013-04-17 10:57:00,58.7,39.6,30.12,NNE,24,1.0,7.0,49,0.00,,CLR,0.01,VWS V14.01,2013-04-17 14:57:00,
2013-04-17 11:02:00,58.9,37.6,30.12,North,359,2.0,7.0,45,0.00,,CLR,0.01,VWS V14.01,2013-04-17 15:02:00,
2013-04-17 11:07:00,58.9,36.5,30.12,NW,315,0.0,2.0,43,0.00,,CLR,0.01,VWS V14.01,2013-04-17 15:07:00,
2013-04-17 11:12:00,59.0,36.0,30.12,WSW,243,0.0,5.0,42,0.00,,CLR,0.01,VWS V14.01,2013-04-17 15:12:00,
2013-04-17 11:17:00,59.8,39.0,30.12,NNW,342,4.0,6.0,46,0.00,,CLR,0.01,VWS V14.01,2013-04-17 15:17:00,
2013-04-17 11:23:00,59.6,36.5,30.12,North,0,6.0,7.0,42,0.00,,CLR,0.01,VWS V14.01,2013-04-17 15:23:00,
2013-04-17 11:28:00,59.2,38.5,30.12,NE,47,3.0,7.0,46,0.00,,CLR,0.01,VWS V14.01,2013-04-17 15:28:00,
2013-04-17 11:33:00,59.5,38.2,30.12,NE,52,2.0,7.0,45,0.00,,CLR,0.01,VWS V14.01,2013-04-17 15:33:00,
2013-04-17 11:38:00,59.9,36.2,30.12,NW,311,5.0,9.0,41,0.00,,CLR,0.01,VWS V14.01,2013-04-17 15:38:00,
2013-04-17 11:43:00,59.3,34.4,30.12,North,11,1.0,7.0,39,0.00,,CLR,0.01,VWS V14.01,2013-04-17 15:43:00,
2013-04-17 11:48:00,60.1,36.3,30.11,East,86,6.0,10.0,41,0.00,,CLR,0.01,VWS V14.01,2013-04-17 15:48:00,
2013-04-17 11:53:00,60.1,33.8,30.11,North,356,5.0,7.0,37,0.00,,CLR,0.01,VWS V14.01,2013-04-17 15:53:00,
2013-04-17 11:58:00,60.4,37.8,30.11,North,0,1.0,4.0,43,0.00,,CLR,0.01,VWS V14.01,2013-04-17 15:58:00,
2013-04-17 12:03:00,60.7,36.3,30.10,NNE,20,3.0,3.0,40,0.00,,CLR,0.01,VWS V14.01,2013-04-17 16:03:00,
2013-04-17 12:08:00,60.5,35.4,30.10,WSW,253,2.0,7.0,39,0.00,,CLR,0.01,VWS V14.01,2013-04-17 16:08:00,
2013-04-17 12:14:00,60.2,33.2,30.10,ENE,71,1.0,7.0,36,0.00,,CLR,0.01,VWS V14.01,2013-04-17 16:14:00,
2013-04-17 12:19:00,61.0,37.8,30.10,WNW,289,1.0,6.0,42,0.00,,CLR,0.01,VWS V14.01,2013-04-17 16:19:00,
2013-04-17 12:24:00,61.6,33.7,30.10,West,272,1.0,6.0,35,0.00,,CLR,0.01,VWS V14.01,2013-04-17 16:24:00,
2013-04-17 12:29:00,60.7,32.9,30.10,North,11,4.0,7.0,35,0.00,,CLR,0.01,VWS V14.01,2013-04-17 16:29:00,
2013-04-17 12:34:00,61.3,34.8,30.10,NW,305,3.0,7.0,37,0.00,,CLR,0.01,VWS V14.01,2013-04-17 16:34:00,
2013-04-17 12:39:00,62.1,34.2,30.10,North,356,5.0,7.0,35,0.00,,CLR,0.01,VWS V14.01,2013-04-17 16:39:00,
2013-04-17 12:44:00,62.0,34.1,30.10,NE,56,1.0,6.0,35,0.00,,CLR,0.01,VWS V14.01,2013-04-17 16:44:00,
2013-04-17 12:49:00,62.6,39.2,30.09,NNE,18,0.0,3.0,42,0.00,,CLR,0.01,VWS V14.01,2013-04-17 16:49:00,
2013-04-17 12:54:00,62.3,32.9,30.09,WNW,287,0.0,3.0,33,0.00,,CLR,0.01,VWS V14.01,2013-04-17 16:54:00,
2013-04-17 13:00:00,62.1,33.4,30.09,North,0,1.0,10.0,34,0.00,,CLR,0.01,VWS V14.01,2013-04-17 17:00:00,
2013-04-17 13:05:00,62.9,35.6,30.09,NE,47,7.0,12.0,36,0.00,,CLR,0.01,VWS V14.01,2013-04-17 17:05:00,
2013-04-17 13:10:00,62.3,35.0,30.09,North,0,4.0,5.0,36,0.00,,CLR,0.01,VWS V14.01,2013-04-17 17:10:00,
2013-04-17 13:15:00,62.7,34.0,30.09,SSW,199,6.0,6.0,34,0.00,,CLR,0.01,VWS V14.01,2013-04-17 17:15:00,
2013-04-17 13:20:00,62.7,34.0,30.09,ENE,71,3.0,7.0,34,0.00,,CLR,0.01,VWS V14.01,2013-04-17 17:20:00,
2013-04-17 13:25:00,62.9,33.4,30.09,NNW,336,3.0,6.0,33,0.00,,CLR,0.01,VWS V14.01,2013-04-17 17:25:00,
2013-04-17 13:30:00,62.4,32.9,30.09,North,349,2.0,3.0,33,0.00,,CLR,0.01,VWS V14.01,2013-04-17 17:30:00,
2013-04-17 13:35:00,63.9,37.1,30.09,NNE,18,2.0,8.0,37,0.00,,CLR,0.01,VWS V14.01,2013-04-17 17:35:00,
2013-04-17 13:41:00,63.2,31.3,30.09,NNW,337,1.0,3.0,30,0.00,,CLR,0.01,VWS V14.01,2013-04-17 17:41:00,
2013-04-17 13:46:00,62.9,30.2,30.09,NNW,330,5.0,11.0,29,0.00,,CLR,0.01,VWS V14.01,2013-04-17 17:46:00,
2013-04-17 13:51:00,62.7,34.0,30.09,West,261,10.0,10.0,34,0.00,,CLR,0.01,VWS V14.01,2013-04-17 17:51:00,
2013-04-17 13:56:00,62.9,30.2,30.09,WSW,253,4.0,10.0,29,0.00,,CLR,0.01,VWS V14.01,2013-04-17 17:56:00,
2013-04-17 14:01:00,63.1,29.5,30.09,NW,308,2.0,8.0,28,0.00,,CLR,0.01,VWS V14.01,2013-04-17 18:01:00,
2013-04-17 14:06:00,63.2,32.9,30.09,North,0,0.0,14.0,32,0.00,,CLR,0.01,VWS V14.01,2013-04-17 18:06:00,
2013-04-17 14:11:00,63.4,33.0,30.09,North,0,3.0,3.0,32,0.00,,CLR,0.01,VWS V14.01,2013-04-17 18:11:00,
2013-04-17 14:17:00,64.2,32.2,30.09,WSW,247,7.0,7.0,30,0.00,,CLR,0.01,VWS V14.01,2013-04-17 18:17:00,
2013-04-17 14:22:00,64.0,30.3,30.09,ENE,71,2.0,5.0,28,0.00,,CLR,0.01,VWS V14.01,2013-04-17 18:22:00,
2013-04-17 14:27:00,64.7,30.9,30.09,ENE,68,2.0,5.0,28,0.00,,CLR,0.01,VWS V14.01,2013-04-17 18:27:00,
2013-04-17 14:32:00,64.7,30.9,30.09,WSW,253,11.0,11.0,28,0.00,,CLR,0.01,VWS V14.01,2013-04-17 18:32:00,
2013-04-17 14:37:00,65.0,34.5,30.09,WNW,291,1.0,10.0,32,0.00,,CLR,0.01,VWS V14.01,2013-04-17 18:37:00,
2013-04-17 14:42:00,64.8,31.0,30.09,NW,308,1.0,8.0,28,0.00,,CLR,0.01,VWS V14.01,2013-04-17 18:42:00,
2013-04-17 14:48:00,64.5,29.8,30.09,WNW,285,0.0,10.0,27,0.00,,CLR,0.01,VWS V14.01,2013-04-17 18:48:00,
2013-04-17 14:53:00,64.3,29.6,30.09,WNW,299,5.0,10.0,27,0.00,,CLR,0.01,VWS V14.01,2013-04-17 18:53:00,
2013-04-17 14:58:00,64.5,29.8,30.09,West,267,2.0,3.0,27,0.00,,CLR,0.01,VWS V14.01,2013-04-17 18:58:00,
2013-04-17 15:03:00,64.7,30.0,30.09,NNW,333,5.0,8.0,27,0.00,,CLR,0.01,VWS V14.01,2013-04-17 19:03:00,
2013-04-17 15:08:00,65.0,30.2,30.09,North,0,0.0,3.0,27,0.00,,CLR,0.01,VWS V14.01,2013-04-17 19:08:00,
2013-04-17 15:13:00,65.5,31.6,30.09,NE,44,0.0,5.0,28,0.00,,CLR,0.01,VWS V14.01,2013-04-17 19:13:00,
2013-04-17 15:18:00,65.3,30.5,30.09,NNW,335,0.0,5.0,27,0.00,,CLR,0.01,VWS V14.01,2013-04-17 19:18:00,
2013-04-17 15:24:00,65.2,30.4,30.09,NNE,30,6.0,6.0,27,0.00,,CLR,0.01,VWS V14.01,2013-04-17 19:24:00,
2013-04-17 15:29:00,65.8,30.9,30.09,SE,126,0.0,5.0,27,0.00,,CLR,0.01,VWS V14.01,2013-04-17 19:29:00,
2013-04-17 15:34:00,65.6,28.9,30.10,NE,40,0.0,5.0,25,0.00,,CLR,0.01,VWS V14.01,2013-04-17 19:34:00,
2013-04-17 15:39:00,66.0,30.2,30.10,WNW,295,2.0,7.0,26,0.00,,CLR,0.01,VWS V14.01,2013-04-17 19:39:00,
2013-04-17 15:44:00,66.0,32.0,30.10,WSW,250,5.0,6.0,28,0.00,,CLR,0.01,VWS V14.01,2013-04-17 19:44:00,
2013-04-17 15:49:00,66.0,29.2,30.09,NW,306,2.0,8.0,25,0.00,,CLR,0.01,VWS V14.01,2013-04-17 19:49:00,
2013-04-17 15:54:00,66.1,29.3,30.09,WNW,287,10.0,12.0,25,0.00,,CLR,0.01,VWS V14.01,2013-04-17 19:54:00,
2013-04-17 15:59:00,66.0,28.2,30.09,NNW,329,2.0,6.0,24,0.00,,CLR,0.01,VWS V14.01,2013-04-17 19:59:00,
2013-04-17 16:04:00,66.0,29.2,30.09,NW,318,1.0,3.0,25,0.00,,CLR,0.01,VWS V14.01,2013-04-17 20:04:00,
2013-04-17 16:09:00,66.3,29.5,30.09,West,270,6.0,8.0,25,0.00,,CLR,0.01,VWS V14.01,2013-04-17 20:09:00,
2013-04-17 16:15:00,66.3,29.5,30.10,NNE,17,4.0,8.0,25,0.00,,CLR,0.01,VWS V14.01,2013-04-17 20:15:00,
2013-04-17 16:20:00,66.3,28.5,30.10,West,280,6.0,6.0,24,0.00,,CLR,0.01,VWS V14.01,2013-04-17 20:20:00,
2013-04-17 16:25:00,66.3,28.5,30.10,WSW,247,2.0,7.0,24,0.00,,CLR,0.01,VWS V14.01,2013-04-17 20:25:00,
2013-04-17 16:30:00,66.3,28.5,30.10,North,350,2.0,6.0,24,0.00,,CLR,0.01,VWS V14.01,2013-04-17 20:30:00,
2013-04-17 16:35:00,66.4,30.5,30.10,NW,315,4.0,7.0,26,0.00,,CLR,0.01,VWS V14.01,2013-04-17 20:35:00,
2013-04-17 16:40:00,66.6,28.7,30.10,SW,226,0.0,6.0,24,0.00,,CLR,0.01,VWS V14.01,2013-04-17 20:40:00,
2013-04-17 16:46:00,66.8,28.9,30.10,WSW,250,0.0,6.0,24,0.00,,CLR,0.01,VWS V14.01,2013-04-17 20:46:00,
2013-04-17 16:51:00,66.9,32.8,30.10,North,352,6.0,6.0,28,0.00,,CLR,0.01,VWS V14.01,2013-04-17 20:51:00,
2013-04-17 16:56:00,66.8,27.8,30.10,WNW,287,1.0,12.0,23,0.00,,CLR,0.01,VWS V14.01,2013-04-17 20:56:00,
2013-04-17 17:01:00,66.6,27.7,30.10,West,272,7.0,8.0,23,0.00,,CLR,0.01,VWS V14.01,2013-04-17 21:01:00,
2013-04-17 17:06:00,66.3,28.5,30.10,NW,318,5.0,7.0,24,0.00,,CLR,0.01,VWS V14.01,2013-04-17 21:06:00,
2013-04-17 17:12:00,66.0,28.2,30.10,West,261,6.0,10.0,24,0.00,,CLR,0.01,VWS V14.01,2013-04-17 21:12:00,
2013-04-17 17:17:00,65.8,29.0,30.11,North,0,7.0,7.0,25,0.00,,CLR,0.01,VWS V14.01,2013-04-17 21:17:00,
2013-04-17 17:22:00,65.5,28.8,30.11,North,0,0.0,2.0,25,0.00,,CLR,0.01,VWS V14.01,2013-04-17 21:22:00,
2013-04-17 17:27:00,65.5,28.8,30.11,North,3,0.0,3.0,25,0.00,,CLR,0.01,VWS V14.01,2013-04-17 21:27:00,
2013-04-17 17:32:00,65.3,29.6,30.12,NW,308,0.0,5.0,26,0.00,,CLR,0.01,VWS V14.01,2013-04-17 21:32:00,
2013-04-17 17:37:00,64.8,28.2,30.12,NNW,336,7.0,10.0,25,0.00,,CLR,0.01,VWS V14.01,2013-04-17 21:37:00,
2013-04-17 17:42:00,64.5,29.8,30.12,NNW,336,3.0,3.0,27,0.00,,CLR,0.01,VWS V14.01,2013-04-17 21:42:00,
2013-04-17 17:48:00,64.3,29.6,30.12,NW,326,2.0,3.0,27,0.00,,CLR,0.01,VWS V14.01,2013-04-17 21:48:00,
2013-04-17 17:53:00,64.0,27.5,30.12,NNW,344,4.0,5.0,25,0.00,,CLR,0.01,VWS V14.01,2013-04-17 21:53:00,
2013-04-17 17:58:00,63.9,29.3,30.12,North,0,5.0,5.0,27,0.00,,CLR,0.01,VWS V14.01,2013-04-17 21:58:00,
2013-04-17 18:03:00,63.7,28.2,30.14,NE,45,4.0,5.0,26,0.00,,CLR,0.01,VWS V14.01,2013-04-17 22:03:00,
2013-04-17 18:08:00,63.5,29.0,30.14,WNW,287,2.0,8.0,27,0.00,,CLR,0.01,VWS V14.01,2013-04-17 22:08:00,
2013-04-17 18:13:00,63.2,28.7,30.14,NNE,23,1.0,4.0,27,0.00,,CLR,0.01,VWS V14.01,2013-04-17 22:13:00,
2013-04-17 18:18:00,63.1,28.6,30.14,NNE,14,0.0,2.0,27,0.00,,CLR,0.01,VWS V14.01,2013-04-17 22:18:00,
2013-04-17 18:23:00,62.9,29.3,30.14,North,359,3.0,3.0,28,0.00,,CLR,0.01,VWS V14.01,2013-04-17 22:23:00,
2013-04-17 18:29:00,62.6,28.2,30.14,NNW,337,0.0,2.0,27,0.00,,CLR,0.01,VWS V14.01,2013-04-17 22:29:00,
2013-04-17 18:34:00,62.3,28.8,30.14,North,349,0.0,0.0,28,0.00,,CLR,0.01,VWS V14.01,2013-04-17 22:34:00,
2013-04-17 18:39:00,62.1,28.6,30.14,NNE,24,4.0,4.0,28,0.00,,CLR,0.01,VWS V14.01,2013-04-17 22:39:00,
2013-04-17 18:44:00,61.8,28.4,30.14,North,0,0.0,2.0,28,0.00,,CLR,0.01,VWS V14.01,2013-04-17 22:44:00,
2013-04-17 18:49:00,61.5,28.1,30.15,North,0,0.0,6.0,28,0.00,,CLR,0.01,VWS V14.01,2013-04-17 22:49:00,
2013-04-17 18:54:00,61.3,27.9,30.15,NW,309,0.0,0.0,28,0.00,,CLR,0.01,VWS V14.01,2013-04-17 22:54:00,
2013-04-17 18:59:00,61.0,28.5,30.15,NW,322,0.0,1.0,29,0.00,,CLR,0.01,VWS V14.01,2013-04-17 22:59:00,
2013-04-17 19:04:00,60.7,28.3,30.16,NNW,337,0.0,7.0,29,0.00,,CLR,0.01,VWS V14.01,2013-04-17 23:04:00,
2013-04-17 19:10:00,60.5,28.1,30.16,NNW,344,0.0,2.0,29,0.00,,CLR,0.01,VWS V14.01,2013-04-17 23:10:00,
2013-04-17 19:15:00,60.2,27.9,30.16,North,357,2.0,2.0,29,0.00,,CLR,0.01,VWS V14.01,2013-04-17 23:15:00,
2013-04-17 19:20:00,59.9,27.6,30.16,North,357,0.0,2.0,29,0.00,,CLR,0.01,VWS V14.01,2013-04-17 23:20:00,
2013-04-17 19:25:00,59.5,28.1,30.16,WNW,285,0.0,3.0,30,0.00,,CLR,0.01,VWS V14.01,2013-04-17 23:25:00,
2013-04-17 19:30:00,59.2,27.8,30.17,WNW,282,0.0,2.0,30,0.00,,CLR,0.01,VWS V14.01,2013-04-17 23:30:00,
2013-04-17 19:35:00,58.9,26.7,30.17,WNW,284,0.0,2.0,29,0.00,,CLR,0.01,VWS V14.01,2013-04-17 23:35:00,
2013-04-17 19:41:00,58.6,28.9,30.17,WNW,284,0.0,0.0,32,0.00,,CLR,0.01,VWS V14.01,2013-04-17 23:41:00,
2013-04-17 19:46:00,58.1,28.4,30.17,WNW,284,0.0,0.0,32,0.00,,CLR,0.01,VWS V14.01,2013-04-17 23:46:00,
2013-04-17 19:51:00,57.8,28.9,30.17,WNW,284,0.0,0.0,33,0.00,,CLR,0.01,VWS V14.01,2013-04-17 23:51:00,
2013-04-17 19:56:00,57.3,30.6,30.17,WNW,284,0.0,0.0,36,0.00,,CLR,0.01,VWS V14.01,2013-04-17 23:56:00,
2013-04-17 20:01:00,56.7,33.3,30.18,WNW,284,0.0,0.0,41,0.00,,CLR,0.01,VWS V14.01,2013-04-18 00:01:00,
2013-04-17 20:07:00,56.0,33.2,30.18,WNW,284,0.0,0.0,42,0.00,,CLR,0.01,VWS V14.01,2013-04-18 00:07:00,
2013-04-17 20:12:00,55.4,33.9,30.18,WNW,284,0.0,0.0,44,0.00,,CLR,0.01,VWS V14.01,2013-04-18 00:12:00,
2013-04-17 20:17:00,54.8,32.2,30.19,WNW,284,0.0,0.0,42,0.00,,CLR,0.01,VWS V14.01,2013-04-18 00:17:00,
2013-04-17 20:22:00,54.2,30.4,30.19,WNW,284,0.0,0.0,40,0.00,,CLR,0.01,VWS V14.01,2013-04-18 00:22:00,
2013-04-17 20:27:00,53.6,29.9,30.19,WNW,284,0.0,0.0,40,0.00,,CLR,0.01,VWS V14.01,2013-04-18 00:27:00,
2013-04-17 20:32:00,52.9,29.9,30.19,WNW,284,0.0,0.0,41,0.00,,CLR,0.01,VWS V14.01,2013-04-18 00:32:00,
2013-04-17 20:37:00,52.3,29.9,30.19,WNW,284,0.0,0.0,42,0.00,,CLR,0.01,VWS V14.01,2013-04-18 00:37:00,
2013-04-17 20:42:00,52.0,30.2,30.19,WNW,284,0.0,0.0,43,0.00,,CLR,0.01,VWS V14.01,2013-04-18 00:42:00,
2013-04-17 20:47:00,51.7,29.4,30.19,WNW,284,0.0,0.0,42,0.00,,CLR,0.01,VWS V14.01,2013-04-18 00:47:00,
2013-04-17 20:53:00,51.4,29.1,30.19,WNW,284,0.0,0.0,42,0.00,,CLR,0.01,VWS V14.01,2013-04-18 00:53:00,
2013-04-17 20:58:00,51.1,28.8,30.19,WNW,284,0.0,0.0,42,0.00,,CLR,0.01,VWS V14.01,2013-04-18 00:58:00,
2013-04-17 21:03:00,50.8,30.2,30.20,WNW,284,0.0,0.0,45,0.00,,CLR,0.01,VWS V14.01,2013-04-18 01:03:00,
2013-04-17 21:08:00,50.5,30.0,30.20,WNW,284,0.0,0.0,45,0.00,,CLR,0.01,VWS V14.01,2013-04-18 01:08:00,
2013-04-17 21:13:00,50.2,29.1,30.20,WNW,284,0.0,0.0,44,0.00,,CLR,0.01,VWS V14.01,2013-04-18 01:13:00,
2013-04-17 21:18:00,49.9,29.4,30.20,WNW,284,0.0,0.0,45,0.00,,CLR,0.01,VWS V14.01,2013-04-18 01:18:00,
2013-04-17 21:24:00,49.6,29.7,30.20,WNW,284,0.0,0.0,46,0.00,,CLR,0.01,VWS V14.01,2013-04-18 01:24:00,
2013-04-17 21:29:00,49.4,29.5,30.20,WNW,284,0.0,0.0,46,0.00,,CLR,0.01,VWS V14.01,2013-04-18 01:29:00,
2013-04-17 21:34:00,48.9,29.0,30.21,WNW,284,0.0,0.0,46,0.00,,CLR,0.01,VWS V14.01,2013-04-18 01:34:00,
2013-04-17 21:39:00,48.6,28.8,30.21,WNW,284,0.0,0.0,46,0.00,,CLR,0.01,VWS V14.01,2013-04-18 01:39:00,
2013-04-17 21:44:00,48.5,29.2,30.21,WNW,284,0.0,0.0,47,0.00,,CLR,0.01,VWS V14.01,2013-04-18 01:44:00,
2013-04-17 21:49:00,48.2,29.5,30.22,WNW,284,0.0,0.0,48,0.00,,CLR,0.01,VWS V14.01,2013-04-18 01:49:00,
2013-04-17 21:54:00,47.9,29.7,30.22,WNW,284,0.0,0.0,49,0.00,,CLR,0.01,VWS V14.01,2013-04-18 01:54:00,
2013-04-17 21:59:00,47.6,29.9,30.22,WNW,284,0.0,0.0,50,0.00,,CLR,0.01,VWS V14.01,2013-04-18 01:59:00,
2013-04-17 22:05:00,47.3,30.1,30.22,WNW,284,0.0,0.0,51,0.00,,CLR,0.01,VWS V14.01,2013-04-18 02:05:00,
2013-04-17 22:10:00,47.0,30.3,30.22,WNW,284,0.0,0.0,52,0.00,,CLR,0.01,VWS V14.01,2013-04-18 02:10:00,
2013-04-17 22:15:00,46.7,30.5,30.22,WNW,284,0.0,0.0,53,0.00,,CLR,0.01,VWS V14.01,2013-04-18 02:15:00,
2013-04-17 22:20:00,46.4,30.2,30.22,WNW,284,0.0,0.0,53,0.00,,CLR,0.01,VWS V14.01,2013-04-18 02:20:00,
2013-04-17 22:25:00,46.2,30.0,30.22,WNW,284,0.0,0.0,53,0.00,,CLR,0.01,VWS V14.01,2013-04-18 02:25:00,
2013-04-17 22:30:00,46.0,30.3,30.22,WNW,284,0.0,0.0,54,0.00,,CLR,0.01,VWS V14.01,2013-04-18 02:30:00,
2013-04-17 22:36:00,45.5,29.8,30.22,WNW,284,0.0,0.0,54,0.00,,CLR,0.01,VWS V14.01,2013-04-18 02:36:00,
2013-04-17 22:41:00,45.4,29.7,30.22,WNW,284,0.0,0.0,54,0.00,,CLR,0.01,VWS V14.01,2013-04-18 02:41:00,
2013-04-17 22:46:00,45.1,29.5,30.22,WNW,284,0.0,0.0,54,0.00,,CLR,0.01,VWS V14.01,2013-04-18 02:46:00,
2013-04-17 22:51:00,44.8,29.6,30.22,WNW,284,0.0,0.0,55,0.00,,CLR,0.01,VWS V14.01,2013-04-18 02:51:00,
2013-04-17 22:56:00,44.6,30.3,30.22,WNW,284,0.0,0.0,57,0.00,,CLR,0.01,VWS V14.01,2013-04-18 02:56:00,
2013-04-17 23:01:00,44.3,30.5,30.21,WNW,284,0.0,0.0,58,0.00,,CLR,0.01,VWS V14.01,2013-04-18 03:01:00,
2013-04-17 23:06:00,44.1,30.7,30.21,WNW,284,0.0,2.0,59,0.00,,CLR,0.01,VWS V14.01,2013-04-18 03:06:00,
2013-04-17 23:11:00,43.8,30.4,30.21,WNW,284,0.0,0.0,59,0.00,,CLR,0.01,VWS V14.01,2013-04-18 03:11:00,
2013-04-17 23:17:00,43.5,31.0,30.22,WNW,284,0.0,0.0,61,0.00,,CLR,0.01,VWS V14.01,2013-04-18 03:17:00,
2013-04-17 23:22:00,43.3,30.4,30.22,WNW,284,0.0,0.0,60,0.00,,CLR,0.01,VWS V14.01,2013-04-18 03:22:00,
2013-04-17 23:27:00,43.1,30.6,30.22,WNW,284,0.0,0.0,61,0.00,,CLR,0.01,VWS V14.01,2013-04-18 03:27:00,
2013-04-17 23:32:00,42.9,30.4,30.23,WNW,284,0.0,0.0,61,0.00,,CLR,0.01,VWS V14.01,2013-04-18 03:32:00,
2013-04-17 23:37:00,42.6,30.5,30.23,WNW,284,0.0,0.0,62,0.00,,CLR,0.01,VWS V14.01,2013-04-18 03:37:00,
2013-04-17 23:42:00,42.5,30.4,30.23,WNW,284,0.0,0.0,62,0.00,,CLR,0.01,VWS V14.01,2013-04-18 03:42:00,
2013-04-17 23:47:00,42.3,30.6,30.24,WNW,284,0.0,0.0,63,0.00,,CLR,0.01,VWS V14.01,2013-04-18 03:47:00,
2013-04-17 23:53:00,42.1,30.4,30.24,WNW,284,0.0,0.0,63,0.00,,CLR,0.01,VWS V14.01,2013-04-18 03:53:00,
2013-04-17 23:58:00,41.8,30.1,30.24,WNW,284,0.0,0.0,63,0.00,,CLR,0.01,VWS V14.01,2013-04-18 03:58:00,